Regional Weather Roundup
Issued by NWS

Current Version | Previous Version | Text Only | Print | Product List | Glossary On
Versions: 1 2 3 4 5 6 7 8 9 10 11 12 13 14 15 16 17 18 19 20 21 22 23 24 25 26 27 28 29 30 31 32 33 34 35 36 37 38 39 40 41 42 43 44 45 46 47 48 49 50
000
ASUS46 KSEW 040610
RWRWA

WASHINGTON REGIONAL WEATHER ROUNDUP
NATIONAL WEATHER SERVICE SEATTLE WA
1100 PM PDT THU SEP 03 2015

NOTE:"FAIR" INDICATES FEW OR NO CLOUDS BELOW 12,000 FEET WITH NO
SIGNIFICANT WEATHER AND/OR OBSTRUCTIONS TO VISIBILITY.

WAZ505-507>509-040700-
SEATTLE, TACOMA, EVERETT, AND VICINITY

CITY           SKY/WX    TMP DP  RH WIND       PRES   REMARKS
EVERETT        CLOUDY    53  48  83 E3        30.01S
6HR MIN TEMP:  51; 6HR MAX TEMP:  60; 6HR PCP:  0.14;

BOEING FIELD   MOCLDY    58  48  69 CALM      30.00F
6HR MIN TEMP:  58; 6HR MAX TEMP:  66;

RENTON         MOCLDY    56  49  77 NW6       30.00S
6HR MIN TEMP:  56; 6HR MAX TEMP:  67; 6HR PCP: TRACE;

SEATAC AIRPORT MOCLDY    54  48  80 N5        30.01S
6HR MIN TEMP:  54; 6HR MAX TEMP:  65;

JBLM-MCCHORD   CLOUDY    54  48  81 CALM      30.01S
6HR MIN TEMP:  52; 6HR MAX TEMP:  62; 6HR PCP: TRACE;

PUYALLUP       CLOUDY    54  50  87 CALM      30.00F
BREMERTON      CLOUDY    54  46  76 NE9       30.04S
6HR MIN TEMP:  54; 6HR MAX TEMP:  63;

JBLM-FT LEWIS  CLOUDY    51  50  94 S2        29.99F
6HR MIN TEMP:  51; 6HR MAX TEMP:  62; 6HR PCP: TRACE;

TACOMA NARROWS CLOUDY    54  48  80 NE6       30.00F
6HR MIN TEMP:  54; 6HR MAX TEMP:  63;

$$

WAZ001-503-506-510-514-515-040700-
NORTH INTERIOR

CITY           SKY/WX    TMP DP  RH WIND       PRES   REMARKS
BELLINGHAM     CLOUDY    50  49  96 CALM        N/A
6HR MIN TEMP:  50; 6HR MAX TEMP:  60; 6HR PCP:  0.04;

FRIDAY HARBOR  PTCLDY    47  45  93 CALM      30.03F
6HR MIN TEMP:  47; 6HR MAX TEMP:  59; 6HR PCP: TRACE;

EASTSOUND      MOCLDY    48  48 100 CALM      30.01S
PORT ANGELES   CLOUDY    49  47  93 SW7       30.02S
6HR MIN TEMP:  49; 6HR MAX TEMP:  55; 6HR PCP:  0.14;

PORT TOWNSEND    N/A     48  48 100 CALM      30.02S
NAS WHIDBEY    MOCLDY    50  49  96 NW6       30.05F
6HR MIN TEMP:  50; 6HR MAX TEMP:  62; 6HR PCP: TRACE;

ARLINGTON      CLOUDY    50  45  81 N5        30.02S
6HR MIN TEMP:  50; 6HR MAX TEMP:  63; 6HR PCP:  0.13;

BURLINGTON     CLOUDY    52  50  93 CALM      30.02S
$$

WAZ020-022-039-040-504-511-512-040700-
SOUTHWEST INTERIOR

CITY           SKY/WX    TMP DP  RH WIND       PRES   REMARKS
SHELTON        PTCLDY    52  46  80 N6        29.99S
6HR MIN TEMP:  52; 6HR MAX TEMP:  62;

OLYMPIA        CLEAR     47  46  97 S3        30.00F
6HR MIN TEMP:  47; 6HR MAX TEMP:  62;

CHEHALIS       FOG       50  50 100 CALM      30.00F VSB 0
KELSO          NOT AVBL
VANCOUVER      PTCLDY    56  51  84 CALM      29.98F
6HR MIN TEMP:  54; 6HR MAX TEMP:  63; 6HR PCP: TRACE;

SCAPPOOSE, OR  CLEAR     48  47  96 NW3       29.98F
6HR MIN TEMP:  48; 6HR MAX TEMP:  59; 6HR PCP:  0.01;

PORTLAND, OR   PTCLDY    55  51  86 W3        29.99F
6HR MIN TEMP:  55; 6HR MAX TEMP:  64; 6HR PCP: TRACE;

$$

WAZ021-516-517-040700-
WASHINGTON COAST

CITY           SKY/WX    TMP DP  RH WIND       PRES   REMARKS
FORKS          PTCLDY    50  48  93 CALM      30.00S
6HR MIN TEMP:  50; 6HR MAX TEMP:  63;

HOQUIAM        CLEAR     54  50  86 CALM      30.00S
6HR MIN TEMP:  54; 6HR MAX TEMP:  63;

ASTORIA, OR    CLEAR     52  49  89 SE5       29.99S
6HR MIN TEMP:  52; 6HR MAX TEMP:  64;

$$

WAZ019-023-024-040-518-519-040700-
CASCADE MOUNTAINS AND COLUMBIA GORGE

CITY           SKY/WX    TMP DP  RH WIND       PRES   REMARKS
TROUTDALE, OR  PTCLDY    53  49  86 CALM      29.98F
6HR MIN TEMP:  53; 6HR MAX TEMP:  66;

THE DALLES, OR CLEAR     60  43  53 W15       29.93F
6HR MIN TEMP:  60; 6HR MAX TEMP:  73;

$$

WAZ026-027-041>044-520-521-040700-
EAST SLOPES

CITY           SKY/WX    TMP DP  RH WIND       PRES   REMARKS
OMAK           PTCLDY    54  29  38 NW7       29.91R
6HR MIN TEMP:  54; 6HR MAX TEMP:  72;

WENATCHEE      PTCLDY    58  35  42 NW14      29.92S
6HR MIN TEMP:  58; 6HR MAX TEMP:  69; 6HR PCP: TRACE;

ELLENSBURG     PTCLDY    52  39  61 NW10      29.94S
6HR MIN TEMP:  52; 6HR MAX TEMP:  68; 6HR PCP: TRACE;

YAKIMA         CLEAR     59  38  45 NW13      29.93S
6HR MIN TEMP:  58; 6HR MAX TEMP:  73;

$$

WAZ028-034-035-040700-
COLUMBIA BASIN

CITY           SKY/WX    TMP DP  RH WIND       PRES   REMARKS
EPHRATA        CLEAR     57  32  38 N5        29.90S
6HR MIN TEMP:  56; 6HR MAX TEMP:  71;

MOSES LAKE     CLEAR     53  33  46 N3        29.91R
6HR MIN TEMP:  53; 6HR MAX TEMP:  71;

PASCO          CLEAR     58  41  53 NW3       29.90R
6HR MIN TEMP:  52; 6HR MAX TEMP:  73;

HERMISTON, OR  CLEAR     58  38  47 SW9       29.90S
6HR MIN TEMP:  54; 6HR MAX TEMP:  73;

$$

WAZ036>038-040700-
NORTHEAST WASHINGTON

CITY           SKY/WX    TMP DP  RH WIND       PRES   REMARKS
SPOKANE GEIGER PTCLDY    52  29  41 SE9       29.94R
6HR MIN TEMP:  52; 6HR MAX TEMP:  65;

SPOKANE FELTS  CLEAR     50  32  50 NE3       29.94R
6HR MIN TEMP:  49; 6HR MAX TEMP:  68;

FAIRCHILD AFB  CLEAR     49  28  44 S3        29.93S
6HR MIN TEMP:  49; 6HR MAX TEMP:  64;

COEURDALENE,ID CLEAR     45  32  61 CALM      29.95R
6HR MIN TEMP:  43; 6HR MAX TEMP:  64;

DEER PARK      CLEAR     39  28  64 CALM      29.94R
6HR MIN TEMP:  39; 6HR MAX TEMP:  66;

$$

WAZ029>033-040700-
SOUTHEAST WASHINGTON

CITY           SKY/WX    TMP DP  RH WIND       PRES   REMARKS
PULLMAN        CLEAR     47  38  71 E6        29.97S
6HR MIN TEMP:  46; 6HR MAX TEMP:  64;

LEWISTON, ID   CLEAR     52  41  66 SE5       29.94S
6HR MIN TEMP:  51; 6HR MAX TEMP:  66;

WALLA WALLA    CLEAR     55  34  45 E9        29.91S
6HR MIN TEMP:  52; 6HR MAX TEMP:  71;

PENDLETON, OR  CLEAR     50  27  40 W10       29.92S
6HR MIN TEMP:  50; 6HR MAX TEMP:  69;

$$


USA.gov is the U.S. government's official web portal to all federal, state and local government web resources and services.